Content
SEND FEEDBACK

Daily
Averages
Monthly
Summary
United Kingdom

LIZARD, ENGLAND


Home > Europe > United Kingdom > England
Elevation: 240 feet     Latitude: 49 57N     Longitude: 005 12W

WEATHER
 
SELECT A DAY
Number of Records: 178,816;   Date Range: 7/1/96 - 7/29/14
 
SHARE

PRINT THIS DATA

[ ← Previous Day ]
WEATHER ALMANAC - JANUARY 29, 2014
[ Next Day → ]
[ °C ]   °F
Weather ElementAverageHighLow
Temperature42.8 °F46.4 °F (12:50 pm)35.6 °F (11:50 pm)
Dewpoint39.5 °F42.8 °F (11:50 am)35.6 °F (11:50 pm)
Humidity85.9 %100 % (11:50 pm)69 % (3:00 pm)
Barometer29.33 in29.50 in (11:50 pm)29.15 in (12:50 am)
Wind Speed11.6 mph17.3 mph (12:50 pm)
Wind Gust29.9 mph (12:50 pm)
Weather ElementAverage
Visibility7.7 mi
Wind DirectionWNW (287.7 °)

Weather ElementTotal
Precipitation---
Heating Degree Days24 (Base 65)
Averaged from 47 records on January 29, 2014
WEATHER CONDITIONS BREAKOUT
WIND DIRECTION BREAKOUT
WEATHER BY HOUR - JANUARY 29, 2014
[ °C ]   °F
Local TimeTemperatureDewpointHumidityBarometerVisibilityWind DirectionWind SpeedGust SpeedPrecipitationEventsConditions
12:50 AM42.8 °F39.2 °F87 %29.15 in6.2 miNorth (350°)9.2 mphPartly Cloudy
1:00 AM43.0 °F39.0 °F79 %29.17 in12.0 miNorth (350°)9.2 mphRainLight Rain Showers
1:50 AM42.8 °F39.2 °F87 %29.18 in3.1 miNorth (350°)8.1 mphRainLight Rain Showers
2:00 AM42.0 °F39.0 °F84 %29.20 in3.0 miNorth (350°)8.1 mphRainLight Rain Showers
2:50 AM41.0 °F39.2 °F93 %29.18 in6.2 miNorth (360°)6.9 mphPartly Cloudy
3:00 AM42.0 °F40.0 °F88 %29.21 in9.0 miNorth6.9 mphRainLight Rain Showers
3:50 AM42.8 °F37.4 °F81 %29.21 in6.2 miNorth (350°)11.5 mphPartly Cloudy
4:00 AM42.0 °F37.0 °F77 %29.22 in11.0 miNorth (350°)11.5 mphRainLight Rain Showers
4:50 AM41.0 °F37.4 °F87 %29.21 in6.2 miNNW (340°)9.2 mphPartly Cloudy
5:00 AM42.0 °F37.0 °F75 %29.24 in12.0 miNNW (340°)9.2 mphRainLight Rain Showers
5:50 AM41.0 °F37.4 °F87 %29.24 in6.2 miNNW (330°)8.1 mphPartly Cloudy
6:00 AM42.0 °F38.0 °F79 %29.26 in12.0 miNNW (330°)8.1 mphPartly Cloudy
6:50 AM41.0 °F37.4 °F87 %29.24 in6.2 miNNW (340°)10.4 mphPartly Cloudy
7:00 AM41.0 °F37.0 °F81 %29.27 in12.0 miNNW (340°)10.4 mphPartly Cloudy
7:50 AM42.8 °F39.2 °F87 %29.27 in6.2 miNorth (350°)11.5 mphScattered Clouds
8:00 AM42.0 °F39.0 °F87 %29.29 in10.0 miNorth (350°)11.5 mphRainLight Rain Showers
8:50 AM42.8 °F39.2 °F87 %29.30 in6.2 miNNW (330°)8.1 mphMostly Cloudy
9:00 AM43.0 °F40.0 °F83 %29.31 in10.0 miNNW (330°)8.1 mphRainLight Rain Showers
9:50 AM42.8 °F41.0 °F93 %29.30 in6.2 miNNW (330°)11.5 mphRainLight Rain Showers
10:00 AM43.0 °F40.0 °F86 %29.33 in6.0 miNNW (330°)11.5 mphRainLight Rain Showers
10:50 AM44.6 °F41.0 °F87 %29.33 in6.2 miNNW (330°)9.2 mphMostly Cloudy
11:00 AM44.0 °F41.0 °F83 %29.34 in11.0 miNNW (330°)9.2 mphRainLight Rain Showers
11:50 AM44.6 °F42.8 °F93 %29.33 in6.2 miNNW (330°)10.4 mphMostly Cloudy
12:00 PM45.0 °F42.0 °F85 %29.35 in6.0 miNNW (330°)10.4 mphRainLight Rain Showers
12:50 PM46.4 °F41.0 °F81 %29.33 in6.2 miNNW (340°)17.3 mph29.9 mphScattered Clouds
1:00 PM46.0 °F40.0 °F74 %29.35 in10.0 miNNW (340°)17.3 mphMostly Cloudy
1:50 PM44.6 °F41.0 °F87 %29.33 in6.2 miNNW (340°)16.1 mphScattered Clouds
2:00 PM45.0 °F42.0 °F83 %29.35 in6.0 miNNW (340°)16.1 mphRainLight Rain Showers
2:50 PM46.4 °F39.2 °F76 %29.33 in6.2 miNNW (340°)17.3 mph29.9 mphHaze
3:00 PM46.0 °F39.0 °F69 %29.36 in9.0 miNNW (340°)17.3 mphHaze
3:50 PM44.6 °F41.0 °F87 %29.36 in3.7 miNNW (340°)11.5 mph25.3 mphRainLight Rain Showers
4:00 PM44.0 °F41.0 °F85 %29.38 in4.0 miNNW (340°)11.5 mphRainLight Rain Showers
4:50 PM44.6 °F41.0 °F87 %29.36 in6.2 miNNW (340°)15.0 mphScattered Clouds
5:00 PM44.0 °F40.0 °F83 %29.39 in10.0 miNNW (340°)15.0 mphRainLight Rain Showers
5:50 PM42.8 °F41.0 °F93 %29.39 in6.2 miNNW (340°)15.0 mphScattered Clouds
6:00 PM44.0 °F40.0 °F81 %29.39 in10.0 miNNW (340°)15.0 mphRainLight Rain Showers
6:50 PM42.8 °F41.0 °F93 %29.39 in6.2 miNNW (340°)15.0 mphRainLight Rain Showers
7:00 PM43.0 °F41.0 °F89 %29.41 in7.0 miNNW (340°)15.0 mphRainLight Rain Showers
7:50 PM42.8 °F41.0 °F93 %29.39 in6.2 miNorth (350°)9.2 mphPartly Cloudy
8:00 PM43.0 °F41.0 °F89 %29.42 in12.0 miNorth (350°)9.2 mphRainLight Rain Showers
8:50 PM42.8 °F39.2 °F87 %29.42 in6.2 miNorth (10°)13.8 mphPartly Cloudy
9:00 PM42.0 °F40.0 °F89 %29.44 in12.0 miNorth (10°)13.8 mphPartly Cloudy
9:50 PM41.0 °F39.2 °F93 %29.44 in6.2 miNE (40°)15.0 mphMostly Cloudy
10:00 PM41.0 °F38.0 °F87 %29.47 in12.0 miNE (40°)15.0 mphMostly Cloudy
10:50 PM39.2 °F37.4 °F93 %29.47 in6.2 miNE (50°)9.2 mphHaze
11:00 PM38.0 °F37.0 °F93 %29.49 in9.0 miNE (50°)9.2 mphHaze
11:50 PM35.6 °F35.6 °F100 %29.50 inNE (40°)6.9 mphClear
Hourly data recorded from EGDR, located miles away from Lizard, England







STORIES FROM OUR PARTNERS